Regional Weather Roundup
Issued by NWS

Home | Current Version | Previous Version | Text Only | Print | Product List | Glossary Off
Versions: 1 2 3 4 5 6 7 8 9 10 11 12 13 14 15 16 17 18 19 20 21 22 23 24 25 26 27 28 29 30 31 32 33 34 35 36 37 38 39 40 41 42 43 44 45 46 47 48 49 50

000
ASUS43 KBIS 141702
RWRND

NORTH DAKOTA REGIONAL WEATHER ROUNDUP
NATIONAL WEATHER SERVICE BISMARCK ND
1100 AM CST SUN FEB 14 2016

NOTE: "FAIR" INDICATES FEW OR NO CLOUDS BELOW 12,000 FEET WITH NO
SIGNIFICANT WEATHER AND/OR OBSTRUCTIONS TO VISIBILITY.


NDZ001>003-009>011-017-141800-
NORTHWEST NORTH DAKOTA

CITY           SKY/WX    TMP DP  RH WIND       PRES   REMARKS
WILLISTON      CLOUDY    26  21  81 CALM      29.72S
MINOT          CLOUDY    33  24  69 W8        29.68F
$$

NDZ018>021-031>035-040>046-141800-
SOUTHWEST NORTH DAKOTA

CITY           SKY/WX    TMP DP  RH WIND       PRES   REMARKS
BISMARCK       CLOUDY    34  28  79 W3        29.73F
DICKINSON      CLOUDY    34  26  72 W17       29.69F
GARRISON         N/A     32  27  81 NW17      29.69F
HETTINGER ARPT CLOUDY    36  28  73 W12       29.74F
$$

NDZ004>008-012>016-024-026-027-054-141800-
NORTHEAST NORTH DAKOTA

CITY           SKY/WX    TMP DP  RH WIND       PRES   REMARKS
GRAND FORKS    LGT SNOW  16  11  80 S21G29    29.79F VSB 1   WCI  -1
GRND FRKS AFB  CLOUDY    15  10  80 S17       29.76F WCI  -1
DEVILS LAKE    CLOUDY    19  17  92 W6        29.69S WCI  11
$$

NDZ022-023-025-028>030-036>039-047>053-141800-
SOUTHEAST NORTH DAKOTA

CITY           SKY/WX    TMP DP  RH WIND       PRES   REMARKS
FARGO          LGT SNOW  16  10  77 S18G29    29.83F WCI   0
JAMESTOWN      CLOUDY    19  16  88 S8        29.70F WCI   9
$$




USA.gov is the U.S. government's official web portal to all federal, state and local government web resources and services.